[[{"header":{"parameterUnit":"m.s-1","parameterCategory":1,"la1":30.2991,"la2":30.254,"lo1":-89.0895,"lo2":-89.0444,"dy":0.0017,"dx":0.0017,"nx":28,"ny":28,"refTime":"2024-12-17T03:00:00:Z","depth":0,"parameterNumber":2,"parameterNumberName":"U-component_of_WINDS"},"data":[0,0,0,0,0,0,0,0,0,0,0,0,0,0,0,0,0,0,0,0,0,0,0,0,0,0,0,0,0,0,0,0,0,0,0,0,0,0,0,0,0,0,0,0,0,0,0,0,0,0,0,0,0,0,0,0,0,0,2.505,2.505,0,2.5042,2.5042,2.5042,2.5035,2.5035,2.5035,2.5035,2.5028,2.5028,2.5028,0,0,0,0,0,0,0,0,0,0,0,0,0,2.5063,2.5062,2.505,2.505,2.505,2.5042,2.5042,2.5042,2.5035,2.5035,2.5035,2.5035,2.5028,2.5028,2.5028,0,0,0,0,0,0,0,0,0,0,0,0,0,2.5056,2.5062,2.505,2.5046,2.5045,2.5042,2.5042,2.5042,2.5035,2.5035,2.5035,2.5035,2.5028,2.5028,2.5028,2.5029,0,0,2.5027,2.5027,0,0,0,0,0,0,0,0,2.5057,2.5056,2.5047,2.5046,2.5046,2.504,2.5044,2.5038,2.5035,2.5039,2.5035,2.5035,2.5032,2.5032,2.503,2.5029,2.5028,2.5027,2.5027,2.5027,2.5027,0,0,0,0,0,0,0,2.5057,2.5056,2.5047,2.5046,2.5046,2.5045,2.5044,2.5043,2.5036,2.5039,2.5038,2.5037,2.5032,2.503,2.503,2.5028,2.5027,2.5027,2.5027,2.5027,2.5029,2.5029,0,0,0,0,0,0,2.5058,2.5056,2.5047,2.5047,2.5051,2.5045,2.5044,2.5042,2.5036,2.5035,2.5037,2.5037,2.5031,2.503,2.503,2.5032,2.5027,2.5027,2.5027,2.5028,2.5029,2.5029,0,0,0,0,0,0,2.5058,2.5057,2.5048,2.5052,2.505,2.5045,2.5043,2.5042,2.504,2.5035,2.5034,2.5037,2.5031,2.503,2.5029,2.5031,2.5027,2.5027,2.5028,2.5028,2.5029,2.5035,0,0,0,0,0,0,2.5058,2.5057,2.5057,2.5052,2.505,2.5047,2.5043,2.5041,2.504,2.5039,2.5035,2.5034,2.5031,2.503,2.5029,2.5031,2.5026,2.5028,2.5028,2.5029,2.5034,2.5035,2.5036,0,0,0,0,0,2.5059,2.5059,2.5057,2.5056,2.505,2.5047,2.5046,2.5042,2.504,2.504,2.5037,2.5034,2.5031,2.503,2.5029,2.5031,2.5028,2.5028,2.5029,2.5034,2.5035,2.5036,0,0,0,0,0,0,2.5065,2.5058,2.5056,2.5054,2.5051,2.5046,2.5046,2.5043,2.5041,2.504,2.5036,2.5035,2.5035,2.5033,2.5031,2.5032,2.5029,2.5029,2.5034,2.5034,2.5035,2.5036,2.5026,0,0,0,0,0,2.5066,2.5064,2.5058,2.5057,2.5056,2.5051,2.505,2.5047,2.5044,2.5043,2.504,2.5037,2.5036,2.5035,2.5033,2.5034,2.5034,2.5035,2.5036,2.5037,2.5037,2.5038,2.5039,2.503,2.503,2.503,0,0,2.5068,2.5064,2.5063,2.5058,2.5056,2.5054,2.505,2.5049,2.5048,2.5043,2.5042,2.504,2.5037,2.5037,2.5037,2.5035,2.5039,2.5037,2.5038,2.5037,2.5039,2.504,2.504,2.503,2.503,2.503,0,0,2.5072,2.5068,2.5067,2.5065,2.5061,2.5058,2.5058,2.5053,2.5052,2.5051,2.5047,2.5047,2.5044,2.5043,2.5041,2.5046,2.5043,2.5046,2.5049,2.5051,2.5051,2.5052,2.5054,2.5055,2.5046,2.5046,2.5046,0,2.5075,2.5072,2.5067,2.5066,2.5065,2.506,2.506,2.5058,2.5054,2.5053,2.5052,2.5049,2.5047,2.5047,2.5048,2.5047,2.5048,2.5046,2.5052,2.5052,2.5053,2.5055,2.5056,2.5046,2.5046,2.5046,2.5046,0,2.5077,2.5075,2.5075,2.5071,2.507,2.5069,2.5065,2.5065,2.5062,2.506,2.506,2.5057,2.5055,2.5055,2.5053,2.5056,2.5055,2.5052,2.5049,2.5054,2.5056,2.5057,2.5047,2.5047,2.5046,2.5046,0,0,2.5083,2.5077,2.5077,2.5076,2.5072,2.5071,2.5071,2.5069,2.5069,2.5067,2.5067,2.5065,2.5064,2.5062,2.506,2.5061,2.5066,2.5059,2.5059,2.5061,2.507,2.5072,2.5073,2.5064,2.5064,2.5064,2.507,0,2.5086,2.5085,2.5081,2.5081,2.508,2.5076,2.5076,2.5074,2.5072,2.5072,2.507,2.5069,2.5066,2.5066,2.5067,2.5065,2.5068,2.5065,2.5065,2.5065,2.5066,2.5074,2.5076,2.5081,2.5071,2.5071,2.5071,0,2.5089,2.5087,2.5087,2.5084,2.5084,2.5083,2.5082,2.5081,2.508,2.5078,2.5078,2.5075,2.5076,2.5073,2.5074,2.5072,2.5072,2.5072,2.5072,2.5072,2.5069,2.5074,2.5083,2.5084,2.5072,2.5072,2.5072,0,2.5094,2.5092,2.5091,2.509,2.5087,2.5087,2.5086,2.5084,2.5083,2.5083,2.5082,2.5082,2.5082,2.5082,2.5079,2.5077,2.5081,2.5078,2.5081,2.5081,2.5082,2.5082,2.5091,2.5082,2.5082,2.5082,2.5082,0,2.5098,2.5098,2.5094,2.5094,2.5094,2.5091,2.5092,2.509,2.5089,2.5089,2.5086,2.5087,2.5084,2.5084,2.5083,2.5085,2.5084,2.5084,2.5084,2.5084,2.5084,2.5084,2.5084,2.5082,2.5082,2.5082,2.5082,0,2.5103,2.51,2.51,2.5097,2.5097,2.5097,2.5095,2.5095,2.5094,2.5094,2.5094,2.5092,2.5092,2.509,2.509,2.509,2.5093,2.5091,2.5093,2.5093,2.5096,2.5096,2.5106,2.5107,2.5097,2.5097,2.5097,0,2.5106,2.5106,2.5103,2.5103,2.5102,2.5102,2.5101,2.5099,2.5098,2.5097,2.5098,2.5098,2.5098,2.51,2.5099,2.5099,2.5098,2.5102,2.5098,2.5099,2.5099,2.5099,2.5099,2.5102,2.5102,2.5102,2.5103,0,2.5111,2.511,2.5109,2.5108,2.5108,2.5107,2.5106,2.5107,2.5104,2.5104,2.5105,2.5105,2.5105,2.5106,2.5107,2.5106,2.5104,2.5104,2.5105,2.5105,2.5106,2.5107,2.5095,2.5103,2.5103,2.5103,2.5103,2.5103,2.5115,2.5116,2.5114,2.5114,2.5113,2.5113,2.5113,2.5112,2.5112,2.5112,2.5111,2.5112,2.5112,2.5112,2.5112,2.5113,2.5112,2.5113,2.5113,2.5114,2.5114,2.5106,2.5113,2.5113,2.5113,2.5113,2.5113,0,2.5121,2.512,2.512,2.5119,2.5119,2.5117,2.5116,2.5117,2.5118,2.5117,2.5118,2.5119,2.512,2.5119,2.5121,2.5122,2.5121,2.5122,2.5122,2.5123,2.5115,2.5115,2.5123,2.5123,2.5123,2.5123,2.5123,2.5123,2.5123,2.5124,2.5123,2.5124,2.5124,2.5124,2.5124,2.5124,2.5124,2.5126,2.5127,2.5126,2.5126,2.5127,2.5129,2.5129,2.5129,2.5131,2.5131,2.5124,2.5123,2.5122,2.5121,2.5131,2.5131,2.5138,2.5138,2.5138]},{"header":{"parameterUnit":"m.s-1","parameterCategory":1,"la1":30.2991,"la2":30.254,"lo1":-89.0895,"lo2":-89.0444,"dy":0.0017,"dx":0.0017,"nx":28,"ny":28,"refTime":"2024-12-17T03:00:00:Z","depth":0,"parameterNumber":3,"parameterNumberName":"V-component_of_WINDS"},"data":[0,0,0,0,0,0,0,0,0,0,0,0,0,0,0,0,0,0,0,0,0,0,0,0,0,0,0,0,0,0,0,0,0,0,0,0,0,0,0,0,0,0,0,0,0,0,0,0,0,0,0,0,0,0,0,0,0,0,-0.3361,-0.3362,0,-0.3451,-0.3452,-0.3453,-0.3488,-0.3488,-0.3488,-0.3488,-0.3583,-0.3586,-0.3589,0,0,0,0,0,0,0,0,0,0,0,0,0,-0.3226,-0.3228,-0.3361,-0.3362,-0.3364,-0.3451,-0.3452,-0.3454,-0.3488,-0.3488,-0.3488,-0.3487,-0.3583,-0.3586,-0.3589,0,0,0,0,0,0,0,0,0,0,0,0,0,-0.3297,-0.3229,-0.3361,-0.3391,-0.3395,-0.3451,-0.3452,-0.3454,-0.3488,-0.3488,-0.3488,-0.3487,-0.3581,-0.3585,-0.359,-0.3623,0,0,-0.3602,-0.3604,0,0,0,0,0,0,0,0,-0.3293,-0.3302,-0.3386,-0.3389,-0.3393,-0.3458,-0.344,-0.3511,-0.3489,-0.3453,-0.3488,-0.3487,-0.3542,-0.355,-0.3568,-0.3628,-0.3632,-0.3603,-0.3605,-0.3607,-0.3608,0,0,0,0,0,0,0,-0.3288,-0.3299,-0.3397,-0.3387,-0.3392,-0.3403,-0.3412,-0.3453,-0.3499,-0.3456,-0.3459,-0.3469,-0.3544,-0.3563,-0.357,-0.3633,-0.3603,-0.3606,-0.3609,-0.3611,-0.373,-0.373,0,0,0,0,0,0,-0.3278,-0.3294,-0.3394,-0.34,-0.3341,-0.3405,-0.3416,-0.3438,-0.3499,-0.3507,-0.3469,-0.347,-0.3556,-0.3565,-0.3574,-0.3619,-0.3607,-0.3611,-0.3613,-0.3729,-0.373,-0.3731,0,0,0,0,0,0,-0.3274,-0.3286,-0.3391,-0.3348,-0.3362,-0.3408,-0.3432,-0.344,-0.3459,-0.3508,-0.3517,-0.348,-0.3556,-0.3568,-0.3611,-0.3623,-0.3613,-0.3617,-0.3728,-0.3729,-0.373,-0.3709,0,0,0,0,0,0,-0.327,-0.3285,-0.3296,-0.3348,-0.3364,-0.3425,-0.3433,-0.3442,-0.3465,-0.3468,-0.3521,-0.3529,-0.3557,-0.3605,-0.3615,-0.3629,-0.362,-0.3728,-0.3729,-0.373,-0.3709,-0.371,-0.371,0,0,0,0,0,-0.3265,-0.3287,-0.3297,-0.3309,-0.3379,-0.3425,-0.3435,-0.3465,-0.3466,-0.348,-0.3512,-0.3527,-0.362,-0.3609,-0.3621,-0.3636,-0.3727,-0.3728,-0.373,-0.3709,-0.371,-0.371,0,0,0,0,0,0,-0.3236,-0.3294,-0.3305,-0.3344,-0.3379,-0.3431,-0.3448,-0.3464,-0.3501,-0.3502,-0.354,-0.3552,-0.3593,-0.3619,-0.3605,-0.3674,-0.3675,-0.3679,-0.3655,-0.3656,-0.3656,-0.3649,-0.3623,0,0,0,0,0,-0.3234,-0.3265,-0.3315,-0.3344,-0.3361,-0.3402,-0.3423,-0.3444,-0.3482,-0.3498,-0.3533,-0.3572,-0.361,-0.3634,-0.3672,-0.3713,-0.3727,-0.373,-0.373,-0.373,-0.3733,-0.3761,-0.3763,-0.3735,-0.3735,-0.3735,0,0,-0.323,-0.3266,-0.3283,-0.3339,-0.3369,-0.3402,-0.3414,-0.3448,-0.3474,-0.3504,-0.3547,-0.3575,-0.3621,-0.3664,-0.3685,-0.3687,-0.3744,-0.3732,-0.3732,-0.3735,-0.3762,-0.3765,-0.3767,-0.3736,-0.3736,-0.3736,0,0,-0.3241,-0.327,-0.3298,-0.3328,-0.3373,-0.3401,-0.3408,-0.3458,-0.3477,-0.3521,-0.3545,-0.3578,-0.3642,-0.3674,-0.3699,-0.3725,-0.3742,-0.3737,-0.3738,-0.3764,-0.3767,-0.3769,-0.3781,-0.3784,-0.374,-0.374,-0.374,0,-0.3231,-0.328,-0.3311,-0.3345,-0.337,-0.3398,-0.3429,-0.3458,-0.3513,-0.3531,-0.3532,-0.3615,-0.3648,-0.3701,-0.3708,-0.3726,-0.3738,-0.3731,-0.3763,-0.3766,-0.3769,-0.378,-0.3784,-0.3739,-0.3739,-0.3739,-0.3739,0,-0.3267,-0.3301,-0.3319,-0.3372,-0.3399,-0.3431,-0.347,-0.3494,-0.3514,-0.3542,-0.3589,-0.3629,-0.3677,-0.3691,-0.371,-0.3748,-0.3748,-0.3756,-0.3758,-0.377,-0.3782,-0.3786,-0.3738,-0.3738,-0.3738,-0.3738,0,0,-0.326,-0.3331,-0.3337,-0.3363,-0.3416,-0.3444,-0.3479,-0.3525,-0.3547,-0.3585,-0.3617,-0.3672,-0.3681,-0.3709,-0.3733,-0.3755,-0.3777,-0.3761,-0.3763,-0.3764,-0.3825,-0.3819,-0.3824,-0.3788,-0.3789,-0.379,-0.3822,0,-0.3278,-0.334,-0.3371,-0.342,-0.3454,-0.3483,-0.3514,-0.3552,-0.358,-0.3614,-0.3646,-0.3685,-0.3692,-0.371,-0.3734,-0.3769,-0.379,-0.3767,-0.3821,-0.3823,-0.381,-0.383,-0.3823,-0.3851,-0.3826,-0.3827,-0.3828,0,-0.3307,-0.3345,-0.3398,-0.345,-0.3466,-0.3492,-0.3539,-0.3571,-0.3616,-0.3635,-0.3668,-0.3691,-0.3732,-0.3731,-0.379,-0.3774,-0.3799,-0.382,-0.3822,-0.3828,-0.3826,-0.3839,-0.386,-0.3865,-0.3835,-0.3834,-0.3834,0,-0.3299,-0.3363,-0.3404,-0.3425,-0.3486,-0.3505,-0.3532,-0.3576,-0.3603,-0.3644,-0.3663,-0.3708,-0.3734,-0.377,-0.3807,-0.3802,-0.3863,-0.3864,-0.3882,-0.3882,-0.3894,-0.3893,-0.3921,-0.3907,-0.3907,-0.3907,-0.3907,0,-0.3317,-0.3349,-0.3401,-0.3426,-0.3464,-0.3501,-0.3538,-0.3567,-0.3607,-0.364,-0.3668,-0.37,-0.3745,-0.3783,-0.3812,-0.3858,-0.3869,-0.3888,-0.3895,-0.3886,-0.3884,-0.3903,-0.3902,-0.3908,-0.3908,-0.3908,-0.3908,0,-0.3314,-0.335,-0.3397,-0.3451,-0.3466,-0.3492,-0.354,-0.3567,-0.3598,-0.364,-0.3652,-0.37,-0.3747,-0.3787,-0.3848,-0.3868,-0.3916,-0.3924,-0.39,-0.3905,-0.3921,-0.392,-0.3964,-0.3973,-0.3951,-0.3951,-0.3951,0,-0.3323,-0.3348,-0.3406,-0.343,-0.3456,-0.3494,-0.3522,-0.356,-0.3589,-0.3643,-0.3665,-0.3713,-0.3754,-0.3827,-0.3869,-0.3917,-0.3928,-0.394,-0.3935,-0.3926,-0.3931,-0.3929,-0.3934,-0.3941,-0.3941,-0.3941,-0.3941,0,-0.3336,-0.3354,-0.3391,-0.3437,-0.3469,-0.3507,-0.3546,-0.3565,-0.3611,-0.3642,-0.369,-0.3721,-0.3785,-0.3834,-0.3887,-0.3917,-0.3938,-0.3942,-0.3949,-0.394,-0.3926,-0.3937,-0.3903,-0.3941,-0.3941,-0.3941,-0.3941,-0.3941,-0.3341,-0.3366,-0.3411,-0.3453,-0.3487,-0.3523,-0.3552,-0.3587,-0.3627,-0.368,-0.3702,-0.3751,-0.3799,-0.3873,-0.3904,-0.3945,-0.3948,-0.3957,-0.396,-0.3962,-0.3962,-0.3919,-0.3955,-0.3955,-0.3955,-0.3955,-0.3955,0,-0.3357,-0.3388,-0.3427,-0.3481,-0.3515,-0.3531,-0.3576,-0.3604,-0.3647,-0.3689,-0.3729,-0.3786,-0.3834,-0.3881,-0.3933,-0.3957,-0.3968,-0.397,-0.3969,-0.3976,-0.3955,-0.3945,-0.396,-0.396,-0.396,-0.396,-0.396,-0.396,-0.3369,-0.3413,-0.3437,-0.3499,-0.3531,-0.3578,-0.3603,-0.3638,-0.3673,-0.3734,-0.3775,-0.3804,-0.385,-0.3906,-0.3952,-0.3965,-0.3984,-0.3983,-0.3999,-0.3978,-0.3977,-0.3976,-0.3967,-0.3986,-0.3986,-0.4017,-0.4017,-0.4017]}]]